Total_Precipitation_Accumulation
1.24 1.22 1.25 1.32 1.34 1.39 1.36 1.26 1.14 1.07 1.07 1.15 1.26 1.28 1.30 1.32 1.29 1.24 1.15 1.11 1.10 1.08 1.11 1.17 1.14 1.10 1.16 1.11 1.05 1.02 1.06 1.19 1.21 0.66 0.49 0.52 0.73 0.93 0.99 1.03 1.07 1.03 0.99
1.18 1.27 1.26 1.27 1.35 1.36 1.29 1.23 1.20 1.13 1.09 1.11 1.23 1.35 1.35 1.33 1.31 1.30 1.26 1.26 1.30 1.24 1.17 1.18 1.20 1.20 1.23 1.21 1.20 1.12 1.02 1.00 1.12 0.93 0.65 0.64 0.77 0.96 1.02 1.07 1.14 1.13 1.06
1.03 1.17 1.27 1.30 1.34 1.37 1.31 1.20 1.20 1.20 1.16 1.13 1.19 1.35 1.41 1.41 1.37 1.30 1.30 1.34 1.41 1.47 1.43 1.39 1.32 1.31 1.32 1.26 1.27 1.23 1.13 1.04 1.04 1.06 0.86 0.75 0.82 0.93 1.07 1.16 1.20 1.20 1.21
0.91 1.07 1.16 1.25 1.34 1.37 1.37 1.33 1.25 1.21 1.20 1.19 1.19 1.26 1.38 1.48 1.54 1.53 1.54 1.49 1.49 1.52 1.53 1.54 1.50 1.49 1.44 1.39 1.40 1.35 1.32 1.33 1.28 1.27 1.12 0.95 0.91 0.95 1.14 1.34 1.43 1.30 1.29
0.80 0.93 1.09 1.16 1.27 1.35 1.36 1.37 1.38 1.36 1.26 1.24 1.23 1.20 1.27 1.53 1.87 1.84 1.73 1.65 1.53 1.44 1.38 1.38 1.44 1.60 1.66 1.73 1.76 1.66 1.63 1.74 1.70 1.62 1.42 1.23 1.11 1.16 1.28 1.37 1.60 1.55 1.46
0.76 0.79 0.94 1.10 1.22 1.31 1.34 1.39 1.38 1.39 1.36 1.30 1.25 1.22 1.25 1.46 1.95 2.01 1.70 1.46 1.33 1.30 1.29 1.20 1.19 1.38 1.48 1.62 1.77 1.79 1.86 2.02 2.11 2.03 1.76 1.50 1.24 1.19 1.32 1.54 1.75 1.93 1.86
0.64 0.65 0.75 0.90 1.06 1.17 1.23 1.31 1.41 1.42 1.38 1.34 1.25 1.19 1.15 1.24 1.67 1.78 1.58 1.29 1.14 1.11 1.12 1.11 1.08 1.12 1.25 1.21 1.39 1.50 1.57 1.75 1.98 2.09 2.06 1.63 1.37 1.27 1.55 1.76 1.81 1.94 1.84
0.57 0.55 0.58 0.68 0.82 0.97 1.11 1.20 1.28 1.39 1.40 1.34 1.26 1.19 1.15 1.11 1.47 1.66 1.54 1.17 1.01 0.94 0.93 0.92 0.92 0.96 1.08 1.25 1.35 1.36 1.28 1.37 1.65 1.86 2.03 1.85 1.65 1.60 1.86 2.15 2.27 2.29 2.08
0.51 0.52 0.50 0.53 0.62 0.77 0.92 1.05 1.13 1.25 1.30 1.28 1.22 1.12 1.08 1.06 1.29 1.61 1.61 1.22 1.04 0.91 0.88 0.87 0.84 0.84 1.12 1.38 1.35 1.27 1.14 1.15 1.34 1.64 1.86 1.96 2.03 2.15 2.32 2.61 2.79 2.75 2.58
0.47 0.47 0.46 0.48 0.52 0.62 0.74 0.89 1.04 1.15 1.22 1.22 1.20 1.11 1.05 1.01 1.18 1.57 1.76 1.30 1.12 0.99 0.91 0.87 0.98 1.02 1.24 1.35 1.26 1.29 1.31 1.17 1.13 1.21 1.32 1.44 1.53 1.69 2.04 2.32 2.57 2.72 2.68
0.45 0.44 0.45 0.46 0.48 0.54 0.67 0.79 0.98 1.10 1.21 1.20 1.14 1.13 1.04 1.01 1.06 1.35 1.76 1.49 1.19 1.09 1.05 0.99 0.95 1.11 1.17 1.24 1.29 1.29 1.42 1.30 1.21 1.30 1.30 1.26 1.29 1.43 1.62 1.91 2.28 2.60 2.78
0.43 0.43 0.43 0.42 0.44 0.50 0.62 0.75 0.90 1.06 1.19 1.21 1.13 1.16 1.13 1.07 1.06 1.26 1.55 1.58 1.36 1.12 1.04 0.93 0.94 1.11 1.16 1.23 1.24 1.34 1.43 1.38 1.27 1.29 1.25 1.21 1.24 1.32 1.45 1.65 1.93 2.18 2.34
0.42 0.43 0.43 0.43 0.45 0.47 0.55 0.70 0.90 1.01 1.12 1.19 1.11 1.12 1.18 1.17 1.18 1.39 1.43 1.45 1.42 1.24 1.19 1.22 1.15 1.20 1.21 1.15 1.20 1.26 1.26 1.22 1.28 1.29 1.19 1.10 1.12 1.23 1.31 1.44 1.61 1.84 2.01
0.43 0.44 0.42 0.45 0.49 0.48 0.52 0.63 0.82 0.98 1.08 1.19 1.12 1.06 1.11 1.21 1.37 1.53 1.47 1.37 1.40 1.37 1.33 1.35 1.31 1.28 1.20 1.15 1.15 1.10 1.07 1.14 1.21 1.20 1.09 0.99 0.99 1.11 1.25 1.37 1.53 1.72 1.98
0.44 0.46 0.45 0.45 0.50 0.52 0.56 0.63 0.74 0.87 1.10 1.30 1.23 1.16 1.26 1.44 1.57 1.74 1.64 1.50 1.51 1.52 1.45 1.37 1.27 1.25 1.25 1.16 1.07 1.01 1.00 1.06 1.09 1.02 1.02 1.01 1.01 1.09 1.17 1.28 1.51 1.68 1.87
0.46 0.46 0.49 0.51 0.51 0.52 0.59 0.70 0.82 0.87 0.98 1.04 1.14 1.22 1.21 1.45 1.53 1.49 1.45 1.40 1.46 1.58 1.49 1.37 1.17 1.08 1.08 1.04 1.02 0.99 0.96 0.96 0.95 0.96 1.02 1.04 1.07 1.13 1.17 1.23 1.43 1.64 1.73
0.51 0.51 0.53 0.54 0.52 0.53 0.59 0.71 0.84 0.92 0.98 1.01 1.04 1.14 1.22 1.36 1.42 1.40 1.38 1.31 1.29 1.30 1.26 1.15 1.05 0.98 0.93 0.90 0.93 0.92 0.91 0.90 0.92 0.97 0.99 0.98 1.01 1.07 1.12 1.19 1.31 1.45 1.55
0.54 0.57 0.61 0.59 0.57 0.59 0.65 0.75 0.86 0.96 1.03 1.06 1.10 1.20 1.27 1.32 1.36 1.40 1.44 1.42 1.37 1.24 1.07 1.03 1.02 0.98 0.94 0.92 0.92 0.93 0.91 0.90 0.96 1.01 1.01 0.96 0.98 1.06 1.10 1.13 1.18 1.32 1.42
0.54 0.57 0.63 0.65 0.64 0.66 0.71 0.80 0.89 0.97 1.02 1.08 1.14 1.32 1.44 1.45 1.44 1.47 1.43 1.25 1.14 1.08 1.03 0.99 0.98 1.02 1.01 0.98 0.95 0.95 0.98 0.97 0.96 1.01 1.00 0.97 0.97 1.04 1.07 1.06 1.11 1.24 1.33
0.55 0.63 0.69 0.71 0.70 0.72 0.77 0.85 0.93 1.00 1.03 1.08 1.13 1.22 1.41 1.50 1.48 1.50 1.38 1.21 1.11 1.04 0.99 0.98 0.96 1.00 1.03 1.02 1.00 1.00 1.02 1.02 1.03 1.05 0.99 0.95 0.97 1.01 1.05 1.04 1.08 1.11 1.14
0.60 0.62 0.69 0.71 0.71 0.76 0.81 0.88 0.96 1.04 1.05 1.05 1.07 1.15 1.36 1.37 1.30 1.24 1.27 1.26 1.19 1.09 1.02 1.02 0.98 0.98 0.99 0.99 0.98 0.99 1.02 1.02 1.02 1.03 0.97 0.90 0.90 0.97 0.98 1.00 0.99 0.97 1.00
0.62 0.65 0.67 0.70 0.74 0.81 0.88 0.93 1.00 1.06 1.04 1.04 1.06 1.15 1.25 1.11 1.07 1.08 1.13 1.18 1.18 1.12 1.04 1.05 1.03 0.98 0.98 1.01 1.02 1.04 1.04 1.02 0.97 0.95 0.93 0.87 0.86 0.89 0.90 0.90 0.87 0.87 0.90
0.64 0.69 0.73 0.74 0.76 0.86 0.91 0.89 0.96 1.02 1.05 1.04 1.05 1.07 1.12 1.10 1.06 1.04 1.08 1.11 1.13 1.11 1.05 1.05 1.03 0.97 0.92 0.94 0.98 1.06 1.12 1.06 0.97 0.96 0.99 0.92 0.87 0.86 0.83 0.80 0.76 0.79 0.85
0.67 0.72 0.79 0.83 0.83 0.84 0.89 0.92 0.94 1.01 1.07 1.06 1.03 1.02 1.08 1.10 1.09 1.05 1.03 1.04 1.07 1.06 1.02 1.03 1.01 0.95 0.89 0.88 0.89 0.92 0.96 1.00 1.01 1.00 0.99 0.97 0.90 0.82 0.80 0.79 0.73 0.74 0.81
0.71 0.76 0.83 0.88 0.90 0.91 0.93 0.94 0.96 1.01 1.06 1.04 1.02 1.02 1.02 1.05 1.07 1.05 1.01 1.01 1.02 0.99 0.93 0.94 0.99 0.98 0.90 0.84 0.82 0.83 0.93 1.00 1.03 1.08 1.14 1.11 0.96 0.82 0.79 0.79 0.76 0.76 0.81
0.72 0.76 0.84 0.89 0.91 0.95 0.99 1.01 1.00 1.00 1.04 1.02 1.00 1.01 1.02 1.05 1.07 1.05 1.02 1.02 1.05 1.01 0.94 0.92 0.93 0.91 0.86 0.84 0.83 0.86 0.90 0.91 0.97 1.06 1.18 1.24 1.08 0.89 0.83 0.82 0.77 0.77 0.80